[[{"header":{"parameterUnit":"m.s-1","parameterCategory":1,"la1":30.2991,"la2":30.254,"lo1":-89.0895,"lo2":-89.0444,"dy":0.0017,"dx":0.0017,"nx":28,"ny":28,"refTime":"2025-08-31T21:00:00:Z","depth":0,"parameterNumber":2,"parameterNumberName":"U-component_of_WINDS"},"data":[0,0,0,0,0,0,0,0,0,0,0,0,0,0,0,0,0,0,0,0,0,0,0,0,0,0,0,0,0,0,0,0,0,0,0,0,0,0,0,0,0,0,0,0,0,0,0,0,0,0,0,0,0,0,0,0,0,0,-2.8332,-2.8331,0,-2.8269,-2.8268,-2.8267,-2.8154,-2.8152,-2.815,-2.8148,-2.8084,-2.8085,-2.8085,0,0,0,0,0,0,0,0,0,0,0,0,0,-2.8357,-2.8357,-2.8332,-2.8331,-2.833,-2.8269,-2.8268,-2.8267,-2.8155,-2.8152,-2.8149,-2.8147,-2.8084,-2.8085,-2.8085,0,0,0,0,0,0,0,0,0,0,0,0,0,-2.8325,-2.8357,-2.8332,-2.8267,-2.826,-2.8269,-2.8268,-2.8267,-2.8155,-2.8152,-2.8149,-2.8146,-2.8084,-2.8085,-2.8085,-2.8153,0,0,-2.8087,-2.8087,0,0,0,0,0,0,0,0,-2.8327,-2.8324,-2.8277,-2.8271,-2.8264,-2.8216,-2.8253,-2.8229,-2.8156,-2.8195,-2.8148,-2.8144,-2.8131,-2.8127,-2.8123,-2.815,-2.8147,-2.8087,-2.8087,-2.8087,-2.8087,0,0,0,0,0,0,0,-2.8329,-2.8326,-2.8307,-2.8277,-2.8269,-2.8241,-2.8233,-2.8248,-2.8182,-2.8191,-2.8183,-2.8177,-2.8127,-2.8123,-2.812,-2.8146,-2.8087,-2.8087,-2.8087,-2.8088,-2.823,-2.8233,0,0,0,0,0,0,-2.8341,-2.8329,-2.8309,-2.8305,-2.8288,-2.8244,-2.8234,-2.8235,-2.8182,-2.817,-2.818,-2.8172,-2.8123,-2.812,-2.8118,-2.8196,-2.8087,-2.8088,-2.8088,-2.8226,-2.8231,-2.8234,0,0,0,0,0,0,-2.8342,-2.834,-2.8311,-2.8315,-2.8309,-2.8246,-2.8248,-2.8235,-2.8231,-2.8173,-2.8161,-2.8188,-2.8121,-2.8117,-2.8146,-2.8192,-2.8088,-2.8088,-2.8222,-2.8228,-2.8232,-2.8352,0,0,0,0,0,0,-2.8343,-2.8341,-2.8366,-2.8316,-2.8309,-2.834,-2.8251,-2.8236,-2.8232,-2.8221,-2.8177,-2.8167,-2.8118,-2.8146,-2.8146,-2.8191,-2.8089,-2.8218,-2.8225,-2.8231,-2.8344,-2.8361,-2.8375,0,0,0,0,0,-2.8344,-2.8401,-2.8367,-2.8366,-2.8338,-2.8343,-2.8339,-2.8282,-2.8236,-2.8261,-2.8224,-2.8168,-2.8187,-2.815,-2.8149,-2.8195,-2.8215,-2.8223,-2.823,-2.8337,-2.8357,-2.8375,0,0,0,0,0,0,-2.8457,-2.8394,-2.8355,-2.8398,-2.8377,-2.8324,-2.8353,-2.8305,-2.8297,-2.8287,-2.8216,-2.8207,-2.8246,-2.8223,-2.8182,-2.8259,-2.8192,-2.82,-2.8273,-2.8292,-2.8308,-2.8313,-2.8089,0,0,0,0,0,-2.8488,-2.8496,-2.844,-2.8483,-2.8474,-2.8416,-2.8416,-2.8374,-2.8349,-2.834,-2.8304,-2.8283,-2.8285,-2.8287,-2.8285,-2.834,-2.833,-2.8371,-2.8387,-2.84,-2.8408,-2.8439,-2.8457,-2.826,-2.826,-2.826,0,0,-2.8549,-2.8515,-2.8525,-2.8505,-2.8483,-2.8495,-2.8409,-2.8424,-2.8433,-2.8342,-2.8367,-2.8341,-2.8313,-2.8356,-2.8373,-2.8338,-2.8461,-2.841,-2.8421,-2.8422,-2.8449,-2.8468,-2.8484,-2.8265,-2.8264,-2.8264,0,0,-2.8668,-2.8643,-2.8677,-2.8658,-2.8627,-2.8589,-2.8597,-2.8552,-2.8531,-2.8556,-2.8489,-2.8498,-2.8501,-2.8485,-2.8477,-2.8593,-2.8542,-2.8594,-2.8677,-2.8708,-2.8723,-2.8737,-2.8781,-2.8797,-2.8602,-2.8603,-2.8603,0,-2.8749,-2.8764,-2.8701,-2.8721,-2.8716,-2.8634,-2.867,-2.8654,-2.8625,-2.8623,-2.8584,-2.8588,-2.8563,-2.8602,-2.8631,-2.8627,-2.8636,-2.8599,-2.8726,-2.8739,-2.875,-2.8792,-2.8808,-2.8609,-2.8609,-2.8608,-2.8607,0,-2.8866,-2.8877,-2.8909,-2.8883,-2.8881,-2.8908,-2.8851,-2.8856,-2.8815,-2.8781,-2.8809,-2.8776,-2.8768,-2.8773,-2.8733,-2.8808,-2.8788,-2.8738,-2.867,-2.8777,-2.8815,-2.883,-2.8619,-2.8617,-2.8615,-2.8613,0,0,-2.9054,-2.8995,-2.9008,-2.8996,-2.8958,-2.8965,-2.8991,-2.8982,-2.8989,-2.8972,-2.8993,-2.8998,-2.8953,-2.8945,-2.8901,-2.8928,-2.9026,-2.8875,-2.8874,-2.8906,-2.911,-2.9149,-2.9168,-2.8991,-2.8994,-2.8996,-2.9113,0,-2.9166,-2.9205,-2.9151,-2.9203,-2.9214,-2.9138,-2.916,-2.914,-2.911,-2.9115,-2.9081,-2.9087,-2.9026,-2.9021,-2.9043,-2.9009,-2.9066,-2.8999,-2.9012,-2.9013,-2.9023,-2.9187,-2.9227,-2.934,-2.9127,-2.913,-2.9131,0,-2.9302,-2.9293,-2.9346,-2.9307,-2.9309,-2.933,-2.932,-2.9325,-2.9302,-2.9278,-2.927,-2.9219,-2.9242,-2.9175,-2.9208,-2.9164,-2.9166,-2.915,-2.9153,-2.9153,-2.908,-2.9194,-2.9374,-2.9392,-2.9153,-2.9152,-2.915,0,-2.9437,-2.9438,-2.947,-2.9463,-2.9417,-2.9434,-2.9415,-2.9388,-2.9388,-2.9378,-2.9378,-2.9372,-2.9369,-2.9366,-2.9316,-2.9271,-2.9356,-2.9284,-2.9339,-2.934,-2.9361,-2.936,-2.9546,-2.9359,-2.9359,-2.9359,-2.9358,0,-2.9569,-2.9606,-2.9531,-2.9551,-2.9591,-2.9528,-2.9569,-2.9543,-2.952,-2.9535,-2.9468,-2.9484,-2.9416,-2.9425,-2.9386,-2.9421,-2.9419,-2.9402,-2.9392,-2.9409,-2.9412,-2.941,-2.9402,-2.9363,-2.9362,-2.9361,-2.936,0,-2.9727,-2.9678,-2.9709,-2.9664,-2.9653,-2.9685,-2.9646,-2.9664,-2.9629,-2.965,-2.9651,-2.9598,-2.9605,-2.9554,-2.9552,-2.9526,-2.9581,-2.9555,-2.9589,-2.9582,-2.9641,-2.9637,-2.9833,-2.9856,-2.9654,-2.9655,-2.9657,0,-2.9815,-2.9842,-2.98,-2.9805,-2.9791,-2.98,-2.9799,-2.974,-2.9742,-2.9719,-2.974,-2.9742,-2.9741,-2.9756,-2.9718,-2.9717,-2.9693,-2.9762,-2.9692,-2.971,-2.9697,-2.9697,-2.97,-2.9777,-2.9779,-2.9781,-2.9783,0,-2.9978,-2.9953,-2.9955,-2.995,-2.9951,-2.9943,-2.9932,-2.994,-2.9875,-2.9882,-2.9889,-2.9888,-2.9887,-2.9891,-2.9882,-2.9864,-2.9815,-2.9805,-2.9818,-2.9837,-2.9857,-2.9849,-2.9631,-2.9801,-2.9799,-2.9798,-2.9797,-2.9796,-3.0105,-3.0126,-3.0101,-3.0106,-3.0091,-3.0082,-3.0098,-3.0066,-3.0071,-3.0065,-3.0029,-3.0044,-3.0022,-3.0005,-2.9993,-3.0004,-2.9971,-2.9989,-2.9994,-3.0001,-3.0012,-2.9854,-3.0002,-3.0001,-3.0001,-3.0,-3.0,0,-3.0267,-3.0247,-3.0252,-3.0239,-3.0243,-3.0195,-3.018,-3.0188,-3.0201,-3.0184,-3.0185,-3.0195,-3.0199,-3.0162,-3.0161,-3.0178,-3.0155,-3.018,-3.0179,-3.0177,-3.004,-3.003,-3.0199,-3.0199,-3.0199,-3.0199,-3.0199,-3.0199,-3.0352,-3.0386,-3.0358,-3.0385,-3.0365,-3.0379,-3.0375,-3.0367,-3.0354,-3.0368,-3.0371,-3.0347,-3.0323,-3.0321,-3.0323,-3.0312,-3.0316,-3.035,-3.0331,-3.0205,-3.0186,-3.0167,-3.0158,-3.035,-3.0351,-3.0467,-3.0468,-3.0469]},{"header":{"parameterUnit":"m.s-1","parameterCategory":1,"la1":30.2991,"la2":30.254,"lo1":-89.0895,"lo2":-89.0444,"dy":0.0017,"dx":0.0017,"nx":28,"ny":28,"refTime":"2025-08-31T21:00:00:Z","depth":0,"parameterNumber":3,"parameterNumberName":"V-component_of_WINDS"},"data":[0,0,0,0,0,0,0,0,0,0,0,0,0,0,0,0,0,0,0,0,0,0,0,0,0,0,0,0,0,0,0,0,0,0,0,0,0,0,0,0,0,0,0,0,0,0,0,0,0,0,0,0,0,0,0,0,0,0,-0.8181,-0.8181,0,-0.8212,-0.8212,-0.8213,-0.8198,-0.8197,-0.8196,-0.8196,-0.8227,-0.8229,-0.8231,0,0,0,0,0,0,0,0,0,0,0,0,0,-0.8109,-0.811,-0.8181,-0.8181,-0.8182,-0.8212,-0.8212,-0.8213,-0.8198,-0.8197,-0.8196,-0.8195,-0.8227,-0.8229,-0.8231,0,0,0,0,0,0,0,0,0,0,0,0,0,-0.814,-0.8111,-0.8181,-0.8178,-0.8178,-0.8212,-0.8212,-0.8213,-0.8198,-0.8197,-0.8196,-0.8195,-0.8226,-0.8229,-0.8231,-0.8269,0,0,-0.8238,-0.8239,0,0,0,0,0,0,0,0,-0.8138,-0.8143,-0.8178,-0.8178,-0.8178,-0.82,-0.8199,-0.8232,-0.8199,-0.8191,-0.8196,-0.8194,-0.8219,-0.8222,-0.8231,-0.8271,-0.8272,-0.8238,-0.824,-0.8241,-0.8242,0,0,0,0,0,0,0,-0.8136,-0.8141,-0.8193,-0.8179,-0.8179,-0.8175,-0.8178,-0.8205,-0.8211,-0.8191,-0.819,-0.8194,-0.8219,-0.8228,-0.8231,-0.8273,-0.8238,-0.824,-0.8242,-0.8243,-0.8346,-0.8348,0,0,0,0,0,0,-0.8134,-0.814,-0.8192,-0.8194,-0.8155,-0.8177,-0.8181,-0.8194,-0.8211,-0.8212,-0.8195,-0.8193,-0.8225,-0.8228,-0.8232,-0.8279,-0.8241,-0.8243,-0.8244,-0.8345,-0.8347,-0.8348,0,0,0,0,0,0,-0.8133,-0.8139,-0.8191,-0.8167,-0.8173,-0.818,-0.8195,-0.8195,-0.8205,-0.8214,-0.8215,-0.8203,-0.8224,-0.8229,-0.826,-0.828,-0.8244,-0.8246,-0.8344,-0.8346,-0.8347,-0.8373,0,0,0,0,0,0,-0.8131,-0.8139,-0.8153,-0.8167,-0.8174,-0.8219,-0.8196,-0.8197,-0.8209,-0.8207,-0.8222,-0.8223,-0.8223,-0.8257,-0.8263,-0.8283,-0.8248,-0.8342,-0.8344,-0.8347,-0.8371,-0.8376,-0.838,0,0,0,0,0,-0.8128,-0.8159,-0.8154,-0.8161,-0.8193,-0.822,-0.8224,-0.8224,-0.821,-0.8226,-0.8231,-0.8223,-0.8276,-0.826,-0.8267,-0.8288,-0.8341,-0.8344,-0.8347,-0.8369,-0.8375,-0.838,0,0,0,0,0,0,-0.8148,-0.8161,-0.8156,-0.8192,-0.8205,-0.8218,-0.8237,-0.823,-0.8248,-0.8245,-0.8244,-0.8247,-0.828,-0.8287,-0.8268,-0.8326,-0.8307,-0.8311,-0.8321,-0.8327,-0.8332,-0.833,-0.825,0,0,0,0,0,-0.8157,-0.8177,-0.8187,-0.8219,-0.8225,-0.823,-0.8242,-0.824,-0.8254,-0.8259,-0.8267,-0.828,-0.83,-0.8314,-0.8332,-0.8371,-0.8374,-0.8388,-0.8393,-0.8397,-0.8401,-0.8423,-0.843,-0.8358,-0.8358,-0.8358,0,0,-0.8175,-0.8184,-0.8198,-0.8223,-0.8233,-0.8255,-0.8235,-0.8258,-0.8275,-0.8263,-0.8293,-0.8299,-0.8314,-0.835,-0.8365,-0.8356,-0.8422,-0.8401,-0.8404,-0.8406,-0.8427,-0.8434,-0.844,-0.836,-0.836,-0.8359,0,0,-0.8219,-0.8228,-0.8256,-0.8266,-0.8281,-0.8283,-0.829,-0.8303,-0.8307,-0.8337,-0.8329,-0.8348,-0.8382,-0.8393,-0.8403,-0.8451,-0.8444,-0.8457,-0.8483,-0.8504,-0.851,-0.8515,-0.8533,-0.854,-0.8461,-0.8461,-0.8461,0,-0.824,-0.8273,-0.8271,-0.8295,-0.8307,-0.8296,-0.8324,-0.8334,-0.8355,-0.8363,-0.8352,-0.8395,-0.8404,-0.8442,-0.8454,-0.8461,-0.847,-0.8457,-0.8509,-0.8514,-0.8519,-0.8537,-0.8543,-0.8463,-0.8462,-0.8462,-0.8462,0,-0.8298,-0.8321,-0.8341,-0.8362,-0.8375,-0.8401,-0.8403,-0.8417,-0.8414,-0.8417,-0.8449,-0.8459,-0.848,-0.8488,-0.8486,-0.8527,-0.852,-0.8509,-0.849,-0.8527,-0.8544,-0.8551,-0.8465,-0.8464,-0.8464,-0.8463,0,0,-0.8359,-0.8376,-0.8384,-0.8393,-0.8409,-0.8426,-0.8451,-0.8472,-0.8485,-0.8498,-0.852,-0.8549,-0.8539,-0.855,-0.8548,-0.8566,-0.8605,-0.8553,-0.8553,-0.8564,-0.8652,-0.8662,-0.867,-0.86,-0.8601,-0.8602,-0.8652,0,-0.8406,-0.8451,-0.8449,-0.8491,-0.8513,-0.8502,-0.8524,-0.8536,-0.854,-0.8558,-0.8562,-0.8583,-0.8567,-0.8574,-0.8591,-0.8597,-0.8623,-0.8593,-0.8621,-0.8622,-0.862,-0.8679,-0.8689,-0.8736,-0.8658,-0.8659,-0.866,0,-0.8468,-0.8484,-0.8528,-0.854,-0.8549,-0.8569,-0.8588,-0.8606,-0.8619,-0.862,-0.8632,-0.8627,-0.8653,-0.8632,-0.8668,-0.8647,-0.8658,-0.8662,-0.8664,-0.8669,-0.8645,-0.8687,-0.8751,-0.8758,-0.867,-0.8669,-0.8668,0,-0.8509,-0.8542,-0.8573,-0.8581,-0.8595,-0.861,-0.8617,-0.8628,-0.8641,-0.8657,-0.8665,-0.8683,-0.8694,-0.8709,-0.8709,-0.8693,-0.8746,-0.8724,-0.8749,-0.8749,-0.8762,-0.8762,-0.8831,-0.8766,-0.8766,-0.8766,-0.8765,0,-0.8564,-0.8592,-0.8592,-0.8611,-0.8642,-0.8639,-0.867,-0.8675,-0.8686,-0.8706,-0.8697,-0.8716,-0.8714,-0.8733,-0.8733,-0.8764,-0.8768,-0.877,-0.8771,-0.8773,-0.8773,-0.8782,-0.8779,-0.8767,-0.8767,-0.8767,-0.8766,0,-0.8617,-0.8618,-0.8651,-0.8662,-0.8665,-0.8688,-0.8697,-0.8715,-0.8717,-0.8743,-0.8749,-0.8753,-0.8775,-0.8776,-0.8801,-0.8801,-0.8839,-0.8834,-0.8835,-0.8835,-0.886,-0.8859,-0.894,-0.8951,-0.8876,-0.8877,-0.8877,0,-0.8653,-0.8674,-0.8687,-0.87,-0.8707,-0.8728,-0.874,-0.8738,-0.8751,-0.8767,-0.8784,-0.8805,-0.8822,-0.8858,-0.8863,-0.8883,-0.888,-0.8906,-0.8883,-0.8884,-0.8882,-0.8882,-0.8885,-0.8912,-0.8913,-0.8913,-0.8914,0,-0.8717,-0.8716,-0.8734,-0.8753,-0.8768,-0.8783,-0.8796,-0.8807,-0.8806,-0.8821,-0.8844,-0.8857,-0.8883,-0.8904,-0.8923,-0.893,-0.8923,-0.8921,-0.8928,-0.8932,-0.8932,-0.8934,-0.885,-0.892,-0.8919,-0.8919,-0.8919,-0.8918,-0.8764,-0.8782,-0.8794,-0.8815,-0.8825,-0.8837,-0.8855,-0.8859,-0.8878,-0.8899,-0.8896,-0.8921,-0.8933,-0.8958,-0.8966,-0.8986,-0.8977,-0.8987,-0.899,-0.8993,-0.8996,-0.8927,-0.8989,-0.8989,-0.8989,-0.8988,-0.8988,0,-0.8829,-0.8836,-0.8855,-0.8874,-0.889,-0.888,-0.8894,-0.8909,-0.8931,-0.8943,-0.896,-0.8986,-0.9006,-0.9012,-0.9033,-0.9047,-0.9044,-0.9053,-0.9053,-0.9055,-0.9002,-0.8995,-0.9055,-0.9055,-0.9055,-0.9055,-0.9055,-0.9055,-0.8865,-0.8897,-0.8897,-0.8933,-0.8939,-0.8964,-0.8973,-0.8985,-0.8994,-0.9024,-0.9041,-0.9045,-0.9054,-0.9075,-0.9093,-0.9095,-0.9103,-0.9114,-0.9114,-0.9065,-0.9059,-0.9052,-0.9046,-0.9115,-0.9115,-0.9165,-0.9165,-0.9166]}]]